FW2941 Weather Reports


Display with metric or nautical units.
time (UTC)temp
F
wind
direction
speed
MPH
gust
MPH
rain 1hr
in
rain 24hr
in
rain mn
in
humidity
%
barometer
mb
20200712063313 82 243 1.0 5.0 0.00 0.10 0.00 93 1013.4
20200712062820 82 269 1.0 5.0 0.00 0.10 0.00 93 1013.4
20200712062327 82 250 1.0 2.0 0.00 0.10 0.00 93 1013.5
20200712061824 82 251 1.0 2.0 0.00 0.10 0.00 93 1013.6
20200712061309 82 252 1.0 3.0 0.00 0.10 0.00 93 1013.7
20200712060818 82 274 2.0 3.0 0.00 0.10 0.00 93 1013.7
20200712060319 82 279 1.0 3.0 0.00 0.10 0.00 93 1013.8
20200712055820 82 277 0.0 4.0 0.00 0.10 0.00 93 1013.7
20200712055310 82 278 2.0 3.0 0.00 0.10 0.00 93 1013.7
20200712054818 82 274 1.0 4.0 0.00 0.10 0.00 93 1013.8
20200712054317 82 288 0.0 4.0 0.00 0.10 0.00 93 1013.7
20200712053826 82 271 0.0 4.0 0.00 0.10 0.00 93 1013.8
20200712053314 82 237 2.0 4.0 0.00 0.10 0.00 93 1013.8
20200712052813 82 245 2.0 4.0 0.00 0.10 0.00 94 1013.8
20200712052320 82 271 1.0 3.0 0.00 0.10 0.00 94 1013.8
20200712051828 82 274 1.0 2.0 0.00 0.10 0.00 94 1013.8
20200712051314 82 246 0.0 1.0 0.00 0.10 0.00 93 1013.8
20200712050813 82 236 0.0 1.0 0.00 0.10 0.00 93 1013.9
20200712050320 82 265 0.0 0.0 0.00 0.10 0.00 93 1013.9
20200712045820 82 274 0.0 1.0 0.00 0.10 0.00 93 1013.9
20200712045331 82 262 0.0 1.0 0.00 0.10 0.00 93 1013.9
20200712044819 82 266 0.0 2.0 0.00 0.10 0.00 93 1013.9
20200712044308 82 241 0.0 1.0 0.00 0.10 0.00 93 1013.9
20200712043815 82 233 0.0 1.0 0.00 0.10 0.00 93 1013.9
20200712043316 82 251 0.0 2.0 0.00 0.10 0.00 93 1013.9
20200712042823 82 225 0.0 3.0 0.00 0.10 0.00 92 1014.0
20200712042309 82 244 1.0 3.0 0.00 0.10 0.00 92 1014.0
20200712041817 82 243 0.0 2.0 0.00 0.10 0.00 92 1014.1
20200712041319 82 232 1.0 2.0 0.00 0.10 0.00 92 1014.2
20200712040826 82 248 1.0 2.0 0.00 0.10 0.00 92 1014.4
20200712040313 82 236 1.0 2.0 0.00 0.10 0.00 92 1014.3
20200712035816 82 255 1.0 2.0 0.00 0.10 0.10 92 1014.4
20200712035316 82 264 1.0 2.0 0.00 0.10 0.10 93 1014.4
20200712034824 81 256 0.0 2.0 0.00 0.10 0.10 93 1014.5
20200712034312 81 236 0.0 2.0 0.00 0.10 0.10 93 1014.5
20200712033819 81 241 0.0 1.0 0.00 0.10 0.10 93 1014.4
20200712033319 81 241 0.0 0.0 0.00 0.10 0.10 92 1014.5
20200712032826 81 247 0.0 0.0 0.00 0.10 0.10 92 1014.6
20200712032313 81 247 0.0 0.0 0.00 0.10 0.10 92 1014.6
20200712031819 81 247 0.0 0.0 0.00 0.10 0.10 92 1014.6
20200712031320 81 247 0.0 0.0 0.00 0.10 0.10 92 1014.6
20200712030826 81 247 0.0 0.0 0.00 0.10 0.10 92 1014.7
20200712030314 81 247 0.0 0.0 0.00 0.10 0.10 92 1014.7
20200712025819 81 247 0.0 0.0 0.00 0.10 0.10 92 1014.5
20200712025328 81 247 0.0 0.0 0.00 0.10 0.10 92 1014.5
20200712024827 81 247 0.0 0.0 0.00 0.10 0.10 91 1014.5
20200712024317 82 247 0.0 0.0 0.00 0.10 0.10 91 1014.5
20200712023825 82 247 0.0 0.0 0.00 0.10 0.10 91 1014.4
20200712023333 82 247 0.0 0.0 0.00 0.10 0.10 91 1014.3
20200712022813 82 248 0.0 0.0 0.00 0.10 0.10 90 1014.5
20200712022321 82 248 0.0 0.0 0.00 0.10 0.10 90 1014.5
20200712021828 82 248 0.0 0.0 0.00 0.10 0.10 89 1014.6
20200712021316 82 248 0.0 0.0 0.00 0.10 0.10 88 1014.5
20200712020817 83 248 0.0 1.0 0.00 0.10 0.10 88 1014.4
20200712020324 83 248 0.0 1.0 0.00 0.10 0.10 88 1014.3
20200712015809 83 245 1.0 1.0 0.00 0.10 0.10 88 1014.3
20200712015316 83 261 0.0 1.0 0.00 0.10 0.10 88 1014.4
20200712014817 83 261 0.0 2.0 0.00 0.10 0.10 87 1014.4
20200712014324 83 239 1.0 2.0 0.00 0.10 0.10 87 1014.4
20200712013811 83 270 0.0 2.0 0.00 0.10 0.10 86 1014.3
20200712013319 83 274 1.0 2.0 0.00 0.10 0.10 86 1014.1
20200712012819 83 273 0.0 2.0 0.00 0.10 0.10 86 1013.8
20200712012311 84 278 1.0 3.0 0.00 0.10 0.10 85 1013.8
20200712011818 84 277 1.0 3.0 0.00 0.10 0.10 85 1013.7
20200712011325 84 269 1.0 3.0 0.00 0.10 0.10 85 1013.7
20200712010832 84 265 2.0 3.0 0.00 0.10 0.10 84 1013.8
20200712010313 84 272 0.0 3.0 0.00 0.10 0.10 84 1013.9
20200712005819 84 269 1.0 4.0 0.00 0.10 0.10 84 1013.9
20200712005334 84 276 2.0 5.0 0.00 0.10 0.10 84 1013.9
20200712004813 84 253 3.0 5.0 0.00 0.10 0.10 83 1013.9
20200712004321 84 286 2.0 5.0 0.00 0.10 0.10 83 1013.9
20200712003810 85 276 2.0 5.0 0.00 0.10 0.10 83 1013.9
20200712003325 85 274 3.0 5.0 0.00 0.10 0.10 83 1013.8
20200712002832 85 273 3.0 6.0 0.00 0.10 0.10 83 1013.8
20200712002312 85 258 3.0 8.0 0.00 0.10 0.10 83 1013.9
20200712001819 85 273 4.0 8.0 0.00 0.10 0.10 82 1014.0
20200712001328 85 268 4.0 6.0 0.00 0.10 0.10 82 1014.0
20200712000810 86 287 4.0 8.0 0.00 0.10 0.10 81 1013.9
20200712000316 86 299 3.0 6.0 0.00 0.10 0.10 80 1014.1
20200711235817 86 286 3.0 6.0 0.00 0.10 0.10 79 1014.0
20200711235325 86 286 3.0 5.0 0.00 0.10 0.10 78 1013.9
20200711234825 86 276 3.0 5.0 0.00 0.10 0.10 77 1013.8
20200711234328 86 236 2.0 6.0 0.00 0.10 0.10 78 1013.7
20200711233815 87 253 3.0 6.0 0.00 0.10 0.10 78 1013.4
20200711233315 87 267 1.0 5.0 0.00 0.10 0.10 77 1013.2
20200711232825 87 272 3.0 5.0 0.00 0.10 0.10 77 1013.2
20200711232312 87 288 3.0 4.0 0.00 0.10 0.10 77 1013.0
20200711231820 87 249 1.0 3.0 0.00 0.10 0.10 76 1013.0
20200711231327 87 282 1.0 5.0 0.00 0.10 0.10 75 1013.1
20200711230827 87 258 3.0 5.0 0.00 0.10 0.10 75 1013.1
20200711230313 87 287 2.0 4.0 0.00 0.10 0.10 76 1012.9
20200711225816 87 266 2.0 5.0 0.00 0.10 0.10 75 1013.1
20200711225324 88 311 2.0 7.0 0.00 0.10 0.10 75 1013.1
20200711224824 88 281 3.0 7.0 0.00 0.10 0.10 74 1013.0
20200711224312 88 285 3.0 8.0 0.00 0.10 0.10 73 1012.9
20200711223820 89 283 4.0 8.0 0.00 0.10 0.10 72 1012.8
20200711223333 89 285 1.0 5.0 0.00 0.10 0.10 74 1012.7
20200711222817 89 284 2.0 4.0 0.00 0.10 0.10 72 1012.9
20200711222309 89 273 1.0 5.0 0.00 0.10 0.10 73 1012.9
20200711221819 89 259 3.0 5.0 0.00 0.10 0.10 72 1013.0
20200711221331 89 271 1.0 4.0 0.00 0.10 0.10 73 1013.1
20200711220819 89 314 1.0 3.0 0.00 0.10 0.10 73 1013.2
20200711220312 89 283 1.0 2.0 0.00 0.10 0.10 73 1013.2
20200711215815 89 356 0.0 6.0 0.00 0.10 0.10 73 1013.1
20200711215328 89 266 2.0 6.0 0.00 0.10 0.10 73 1013.0
20200711214819 89 268 3.0 6.0 0.00 0.10 0.10 73 1013.1
20200711214330 89 345 2.0 5.0 0.00 0.10 0.10 72 1013.0
20200711213814 89 83 1.0 7.0 0.00 0.10 0.10 74 1013.0
20200711213325 89 274 3.0 7.0 0.00 0.10 0.10 73 1012.9
20200711212815 89 13 1.0 6.0 0.00 0.10 0.10 74 1012.8
20200711212321 89 307 2.0 6.0 0.00 0.10 0.10 73 1012.9
20200711211827 88 297 3.0 9.0 0.00 0.10 0.10 72 1013.0
20200711211317 88 274 4.0 9.0 0.00 0.10 0.10 74 1013.0
20200711210822 88 290 3.0 8.0 0.00 0.10 0.10 75 1013.0
20200711210332 88 360 5.0 8.0 0.00 0.10 0.10 75 1013.0
20200711205813 88 278 5.0 8.0 0.00 0.10 0.10 77 1013.0
20200711205323 88 299 3.0 8.0 0.00 0.10 0.10 76 1013.1
20200711204814 88 287 3.0 8.0 0.00 0.10 0.10 76 1013.2
20200711204319 88 267 2.0 10.0 0.00 0.10 0.10 76 1013.2
20200711203811 88 276 3.0 10.0 0.00 0.10 0.10 76 1013.1
20200711203322 89 262 6.0 13.0 0.00 0.10 0.10 74 1013.3
20200711202813 89 256 7.0 13.0 0.00 0.10 0.10 74 1013.2
20200711202316 89 5 4.0 8.0 0.00 0.10 0.10 74 1013.1
20200711201827 90 274 5.0 12.0 0.00 0.10 0.10 73 1013.1
20200711201318 89 335 4.0 12.0 0.00 0.10 0.10 75 1012.9
20200711200810 89 277 5.0 11.0 0.00 0.10 0.10 74 1013.0
20200711200313 89 288 7.0 11.0 0.00 0.10 0.10 74 1013.1
20200711195813 89 41 3.0 6.0 0.00 0.10 0.10 76 1013.1
20200711195322 88 113 2.0 7.0 0.00 0.10 0.10 77 1013.2
20200711194811 88 339 2.0 7.0 0.00 0.10 0.10 76 1013.3
20200711194320 87 11 3.0 8.0 0.00 0.10 0.10 76 1013.3
20200711193830 87 307 4.0 9.0 0.00 0.10 0.10 76 1013.5
20200711193314 87 297 4.0 11.0 0.00 0.10 0.10 74 1013.8
20200711192808 87 81 4.0 13.0 0.00 0.10 0.10 74 1013.8
20200711192320 88 86 5.0 13.0 0.00 0.10 0.10 72 1014.0
20200711191810 89 49 5.0 14.0 0.00 0.10 0.10 72 1014.1
20200711191319 89 287 6.0 12.0 0.00 0.10 0.10 73 1014.0
20200711190831 89 325 4.0 19.0 0.00 0.10 0.10 74 1013.8
20200711190315 89 297 8.0 19.0 0.00 0.10 0.10 73 1014.1
20200711185810 89 323 6.0 13.0 0.00 0.10 0.10 74 1014.2
20200711185326 89 290 6.0 13.0 0.00 0.10 0.10 72 1014.0
20200711184809 89 4 5.0 13.0 0.00 0.10 0.10 75 1014.1
20200711184321 89 319 5.0 11.0 0.00 0.10 0.10 75 1014.2
20200711183812 89 273 7.0 13.0 0.00 0.10 0.10 76 1014.3
20200711183315 89 328 7.0 11.0 0.01 0.10 0.10 75 1014.2
20200711182827 89 254 5.0 14.0 0.01 0.10 0.10 75 1014.1
20200711182317 89 294 7.0 14.0 0.01 0.10 0.10 75 1014.1
20200711181829 89 281 6.0 15.0 0.01 0.10 0.10 76 1014.2
20200711181312 89 264 6.0 12.0 0.01 0.10 0.10 75 1014.2
20200711180822 88 301 4.0 17.0 0.01 0.10 0.10 78 1014.3
20200711180312 88 279 9.0 17.0 0.01 0.10 0.10 77 1014.5
20200711175818 88 328 7.0 14.0 0.01 0.10 0.10 79 1014.4
20200711175326 88 287 7.0 14.0 0.09 0.10 0.10 80 1014.4
20200711174855 87 286 5.0 15.0 0.10 0.10 0.10 80 1014.4
20200711174318 87 277 9.0 15.0 0.10 0.10 0.10 81 1014.6
20200711173818 86 266 7.0 13.0 0.10 0.10 0.10 84 1014.5
20200711173311 86 291 4.0 9.0 0.09 0.09 0.09 86 1014.5
20200711172816 85 314 6.0 9.0 0.09 0.09 0.09 87 1014.6
20200711172325 83 293 3.0 6.0 0.09 0.09 0.09 88 1014.5
20200711171825 82 271 2.0 4.0 0.09 0.09 0.09 89 1014.7
20200711171312 82 282 2.0 4.0 0.09 0.09 0.09 88 1014.8
20200711170819 81 295 3.0 5.0 0.09 0.09 0.09 87 1014.8
20200711170328 81 283 2.0 15.0 0.09 0.09 0.09 87 1014.9
20200711165832 82 278 4.0 18.0 0.09 0.09 0.09 84 1015.1
20200711165313 85 278 6.0 15.0 0.00 0.00 0.00 80 1015.2
20200711164820 87 302 7.0 14.0 0.00 0.00 0.00 74 1015.1
20200711164327 89 269 7.0 14.0 0.00 0.00 0.00 73 1014.9
20200711163808 90 243 8.0 12.0 0.00 0.00 0.00 70 1014.8
20200711163317 90 295 5.0 10.0 0.00 0.00 0.00 71 1014.9
20200711162824 90 278 5.0 10.0 0.00 0.00 0.00 70 1014.8
20200711162319 90 279 4.0 10.0 0.00 0.00 0.00 72 1014.8
20200711161826 90 295 6.0 9.0 0.00 0.00 0.00 71 1014.9
20200711161312 90 285 4.0 8.0 0.00 0.00 0.00 71 1014.9
20200711160827 90 291 3.0 10.0 0.00 0.00 0.00 72 1014.9
20200711160335 90 270 6.0 10.0 0.00 0.00 0.00 72 1014.9
20200711155814 89 312 4.0 10.0 0.00 0.00 0.00 73 1015.0
20200711155322 90 259 6.0 10.0 0.00 0.00 0.00 71 1015.1
20200711154810 89 294 4.0 10.0 0.00 0.00 0.00 72 1015.1
20200711154316 89 293 5.0 10.0 0.00 0.00 0.00 71 1015.1
20200711153824 89 335 4.0 11.0 0.00 0.00 0.00 72 1015.2
20200711153312 89 297 6.0 11.0 0.00 0.00 0.00 71 1015.2
20200711152819 89 261 4.0 10.0 0.00 0.00 0.00 74 1015.3
20200711152320 88 307 3.0 9.0 0.00 0.00 0.00 76 1015.2
20200711151808 88 263 5.0 9.0 0.00 0.00 0.00 75 1015.3
20200711151317 87 299 5.0 9.0 0.00 0.00 0.00 75 1015.3
20200711150824 87 297 4.0 14.0 0.00 0.00 0.00 75 1015.3
20200711150332 88 268 8.0 14.0 0.00 0.00 0.00 75 1015.3
20200711145810 88 302 3.0 11.0 0.00 0.00 0.00 75 1015.3
20200711145319 88 36 2.0 10.0 0.00 0.00 0.00 75 1015.2
20200711144826 88 271 4.0 10.0 0.00 0.00 0.00 76 1015.2
20200711144334 88 278 5.0 11.0 0.00 0.00 0.00 75 1015.1
20200711143815 88 305 5.0 8.0 0.00 0.00 0.00 76 1015.0
20200711143322 88 290 3.0 11.0 0.00 0.00 0.00 76 1015.0
20200711142827 88 308 4.0 11.0 0.00 0.00 0.00 76 1015.1
20200711142335 88 297 4.0 12.0 0.00 0.00 0.00 78 1015.2
20200711141820 87 276 3.0 12.0 0.00 0.00 0.00 78 1015.2
20200711141326 86 328 6.0 12.0 0.00 0.00 0.00 79 1015.2
20200711140813 86 356 5.0 14.0 0.00 0.00 0.00 79 1015.3
20200711140322 87 269 7.0 14.0 0.00 0.00 0.00 78 1015.3
20200711135825 87 302 5.0 9.0 0.00 0.00 0.00 78 1015.2
20200711135327 86 345 5.0 13.0 0.00 0.00 0.00 80 1015.5
20200711134813 86 358 4.0 13.0 0.00 0.00 0.00 78 1015.4
20200711134319 86 311 3.0 9.0 0.00 0.00 0.00 80 1015.4
20200711133826 86 302 4.0 8.0 0.00 0.00 0.00 80 1015.4
20200711133326 86 307 5.0 8.0 0.00 0.00 0.00 81 1015.4
20200711132814 86 274 3.0 11.0 0.00 0.00 0.00 81 1015.4
20200711132322 86 342 5.0 11.0 0.00 0.00 0.00 80 1015.4
20200711131829 86 281 3.0 10.0 0.00 0.00 0.00 79 1015.3
20200711131309 86 290 5.0 10.0 0.00 0.00 0.00 80 1015.3
20200711130818 86 300 4.0 11.0 0.00 0.00 0.00 80 1015.2
20200711130325 86 248 5.0 11.0 0.00 0.00 0.00 82 1015.2
20200711125830 85 341 3.0 10.0 0.00 0.00 0.00 84 1015.2
20200711125312 85 286 5.0 10.0 0.00 0.00 0.00 83 1015.2
20200711124821 85 264 5.0 10.0 0.00 0.00 0.00 82 1015.2
20200711124327 85 307 6.0 10.0 0.00 0.00 0.00 82 1015.1
20200711123810 85 278 4.0 13.0 0.00 0.00 0.00 82 1015.2
20200711123316 85 281 5.0 13.0 0.00 0.00 0.00 82 1015.1
20200711122824 85 284 5.0 9.0 0.00 0.00 0.00 83 1015.0
20200711122331 85 277 4.0 8.0 0.00 0.00 0.00 83 1015.0
20200711121813 85 278 5.0 7.0 0.00 0.00 0.00 83 1014.9
20200711121321 85 286 3.0 7.0 0.00 0.00 0.00 84 1014.9
20200711120808 84 272 3.0 6.0 0.00 0.00 0.00 85 1014.9
20200711120315 84 282 3.0 8.0 0.00 0.00 0.00 85 1014.8
20200711115812 84 265 3.0 8.0 0.00 0.00 0.00 85 1014.7
20200711115321 84 264 1.0 8.0 0.00 0.00 0.00 86 1014.7
20200711114810 84 297 4.0 8.0 0.00 0.00 0.00 86 1014.8
20200711114326 84 281 4.0 9.0 0.00 0.00 0.00 86 1014.7
20200711113819 83 272 4.0 9.0 0.00 0.00 0.00 86 1014.7
20200711113327 83 266 3.0 8.0 0.00 0.00 0.00 86 1014.6
20200711112814 83 281 2.0 9.0 0.00 0.00 0.00 87 1014.6
20200711112323 83 268 4.0 9.0 0.00 0.00 0.00 87 1014.6
20200711111831 83 281 4.0 8.0 0.00 0.00 0.00 87 1014.6
20200711111312 83 274 3.0 8.0 0.00 0.00 0.00 87 1014.6
20200711110818 83 274 3.0 6.0 0.00 0.00 0.00 88 1014.5
20200711110327 83 288 3.0 6.0 0.00 0.00 0.00 88 1014.4
20200711105830 83 284 3.0 4.0 0.00 0.00 0.00 88 1014.4
20200711104825 83 271 2.0 9.0 0.00 0.00 0.00 87 1014.3
20200711104331 83 290 3.0 9.0 0.00 0.00 0.00 87 1014.3
20200711103809 83 293 4.0 9.0 0.00 0.00 0.00 88 1014.3
20200711103315 83 262 2.0 9.0 0.00 0.00 0.00 88 1014.3
20200711102821 83 281 3.0 6.0 0.00 0.00 0.00 88 1014.2
20200711102329 83 285 2.0 6.0 0.00 0.00 0.00 88 1014.2
20200711101809 83 267 3.0 6.0 0.00 0.00 0.00 88 1014.0
20200711101323 83 278 3.0 6.0 0.00 0.00 0.00 88 1014.0
20200711100809 82 283 3.0 6.0 0.00 0.00 0.00 88 1014.0
20200711100308 82 282 3.0 6.0 0.00 0.00 0.00 89 1013.9
20200711095812 82 289 1.0 5.0 0.00 0.00 0.00 89 1013.9
20200711095319 82 280 2.0 5.0 0.00 0.00 0.00 89 1013.9
20200711094826 82 279 2.0 6.0 0.00 0.00 0.00 88 1013.9
20200711094314 82 293 4.0 6.0 0.00 0.00 0.00 88 1013.8
20200711093821 82 281 2.0 5.0 0.00 0.00 0.00 88 1013.7
20200711093327 82 281 2.0 5.0 0.00 0.00 0.00 89 1013.9
20200711092815 82 269 1.0 3.0 0.00 0.00 0.00 89 1013.8
20200711092316 82 276 1.0 3.0 0.00 0.00 0.00 89 1013.7
20200711091310 82 276 1.0 3.0 0.00 0.00 0.00 88 1013.9
20200711090816 82 275 1.0 3.0 0.00 0.00 0.00 89 1013.7
20200711090315 82 277 1.0 3.0 0.00 0.00 0.00 89 1013.7
20200711085818 82 270 1.0 5.0 0.00 0.00 0.00 89 1013.7
20200711085310 82 288 2.0 5.0 0.00 0.00 0.00 89 1013.7
20200711084817 82 269 2.0 5.0 0.00 0.00 0.00 89 1013.7
20200711084316 82 271 2.0 5.0 0.00 0.00 0.00 89 1013.7
20200711083822 82 275 1.0 4.0 0.00 0.00 0.00 89 1013.7
20200711083310 82 297 2.0 6.0 0.00 0.00 0.00 89 1013.8
20200711082816 82 283 3.0 6.0 0.00 0.00 0.00 89 1013.9
20200711082321 82 281 3.0 5.0 0.00 0.00 0.00 89 1013.9
20200711081830 82 276 2.0 5.0 0.00 0.00 0.00 89 1014.0
20200711081335 82 286 2.0 5.0 0.00 0.00 0.00 89 1014.1
20200711080816 82 269 3.0 6.0 0.00 0.00 0.00 89 1014.1
20200711080323 82 273 3.0 6.0 0.00 0.00 0.00 89 1014.2
20200711075829 82 267 3.0 4.0 0.00 0.00 0.00 90 1014.3
20200711075310 82 281 1.0 3.0 0.00 0.00 0.00 90 1014.2
20200711074817 82 272 0.0 1.0 0.00 0.00 0.00 90 1014.3
20200711074325 82 278 0.0 2.0 0.00 0.00 0.00 90 1014.4
20200711073831 82 265 0.0 4.0 0.00 0.00 0.00 90 1014.4
20200711073311 82 291 0.0 4.0 0.00 0.00 0.00 90 1014.4
20200711072815 82 286 1.0 4.0 0.00 0.00 0.00 90 1014.5
20200711072321 82 277 2.0 4.0 0.00 0.00 0.00 90 1014.4
20200711071830 82 274 1.0 3.0 0.00 0.00 0.00 90 1014.3
20200711071328 82 253 0.0 2.0 0.00 0.00 0.00 89 1014.6
20200711070816 82 248 1.0 2.0 0.00 0.00 0.00 89 1014.6
20200711070324 82 282 1.0 2.0 0.00 0.00 0.00 89 1014.6
20200711065820 82 270 0.0 3.0 0.00 0.00 0.00 89 1014.6
20200711065326 82 276 0.0 3.0 0.00 0.00 0.00 89 1014.7
20200711064819 82 264 0.0 3.0 0.00 0.00 0.00 89 1014.9
20200711064318 82 280 1.0 3.0 0.00 0.00 0.00 89 1014.9
20200711063826 82 272 1.0 3.0 0.00 0.00 0.00 89 1014.8